This demonstration page uses our WeatherBlox Daily Observations layout. Learn more.

Left ArrowRight Arrow

39.01783, -85.05884

Hourly Observations for October 2, 2020

Temp ( °F °C ) Dew Point ( °F °C ) Humidity (%) Winds ( mph kmh ) Pressure ( in mb ) Visibility ( mi km ) Precip ( " mm )
12:52 am 00:52 Clear 46 7.8 39 3.9 77 77 WNW 8 13 30.09 1019 10 16.0934 0 0
1:52 am 01:52 Clear 47 8.3 40 4.4 77 77 NW 8 13 30.09 1019 10 16.0934 0 0
2:52 am 02:52 Clear 43 6.1 38 3.3 82 82 W 6 9 30.1 1019 10 16.0934 0 0
3:52 am 03:52 Clear 43 6.1 39 3.9 86 86 Calm 30.1 1019 10 16.0934 0 0
4:52 am 04:52 Clear 41 5 38 3.3 89 89 Calm 30.11 1020 10 16.0934 0 0
5:52 am 05:52 Clear 40 4.4 38 3.3 93 93 W 6 9 30.11 1020 10 16.0934 0 0
6:52 am 06:52 Clear 42 5.6 39 3.9 89 89 W 3 6 30.13 1020 10 16.0934 0 0
7:52 am 07:52 Sunny 39 3.9 37 2.8 93 93 SSW 3 6 30.15 1021 8 12.87472 0 0
8:52 am 08:52 Sunny 44 6.7 41 5 89 89 S 3 6 30.16 1022 10 16.0934 0 0
9:52 am 09:52 Mostly Sunny 48 8.9 43 6.1 83 83 W 5 7 30.18 1022 10 16.0934 0 0
10:52 am 10:52 Mostly Sunny 53 11.7 43 6.1 69 69 VRB 6 9 30.18 1022 10 16.0934 0 0
11:52 am 11:52 Partly Cloudy 57 13.9 43 6.1 60 60 VRB 3 6 30.17 1022 10 16.0934 0 0
12:52 pm 12:52 Mostly Cloudy 59 15 41 5 51 51 W 7 11 30.17 1022 10 16.0934 0 0
1:52 pm 13:52 Mostly Cloudy 60 15.6 39 3.9 46 46 NW 12 19 30.15 1021 10 16.0934 0 0
2:52 pm 14:52 Mostly Cloudy 60 15.6 38 3.3 44 44 NW 8 13 30.14 1021 10 16.0934 0 0
3:52 pm 15:52 Mostly Cloudy 60 15.6 37 2.8 42 42 NW 6 9 30.13 1020 10 16.0934 0 0
4:52 pm 16:52 Mostly Cloudy 60 15.6 39 3.9 46 46 W 8 13 30.13 1020 10 16.0934 0 0
5:52 pm 17:52 Mostly Cloudy 59 15 38 3.3 46 46 WSW 6 9 30.13 1020 10 16.0934 0 0
6:52 pm 18:52 Mostly Cloudy 57 13.9 40 4.4 53 53 WSW 3 6 30.14 1021 10 16.0934 0 0
7:52 pm 19:52 Mostly Cloudy 55 12.8 41 5 59 59 WSW 3 6 30.15 1021 10 16.0934 0 0
8:52 pm 20:52 Cloudy 54 12.2 42 5.6 64 64 W 5 7 30.16 1021 10 16.0934 0 0
9:52 pm 21:52 Cloudy 54 12.2 42 5.6 64 64 Calm 30.16 1022 10 16.0934 0 0
10:52 pm 22:52 Cloudy 52 11.1 45 7.2 77 77 Calm 30.17 1022 10 16.0934 0 0
11:52 pm 23:52 Cloudy 53 11.7 43 6.1 69 69 Calm 30.17 1022 10 16.0934 0 0

Powered by AerisWeather